Altus, OK

4:54 AM CST on February 10, 2016 (GMT -0600)
Altus Municipal

Weather History for KAXS - April, 2014

Change the Weather History Date:

Saturday, April 12, 2014

  Actual Average (KLTS) Record (KLTS)
Temperature  
Mean Temperature 77 °F -  
Max Temperature 96 °F 71 °F 91 °F (2014)
Min Temperature 59 °F 46 °F 28 °F (1997)
Cooling Degree Days 12    
Growing Degree Days 27 (Base 50)    
Moisture  
Dew Point 53 °F    
Average Humidity 52    
Maximum Humidity 85    
Minimum Humidity 7    
Precipitation  
Precipitation 0.00 in - - ()
Sea Level Pressure  
Sea Level Pressure 29.73 in    
Wind  
Wind Speed 14 mph (SSE)    
Max Wind Speed 28 mph    
Max Gust Speed 38 mph    
Visibility 10 miles    
Events      
Averages and records for this station are not official NWS values.
T = Trace of Precipitation, MM = Missing Value Source: NWS Daily Summary

Daily Weather History Graph

Daily Weather History Graph

Search for Another Location

Airport or City:

Trip Planner

Search our weather history database for the weather conditions in past years. The results will help you decide how hot, cold, wet, or windy it might be!

Date:

Astronomy

Apr. 12, 2014 Rise Set
Actual Time 7:09 AM CDT 8:07 PM CDT
Civil Twilight 6:43 AM CDT 8:33 PM CDT
Nautical Twilight 6:13 AM CDT 9:03 PM CDT
Astronomical Twilight 5:41 AM CDT 9:35 PM CDT
Moon 5:52 PM CDT (4/12) 5:30 AM CDT (4/12)
Length of Visible Light 13h 49m
Length of Day
12h 57m
Waxing Gibbous, 93% of the Moon is Illuminated
Apr 12
Waxing Gibbous
Apr 15
Full
Apr 22
Last Quarter
Apr 29
New
May 6
First Quarter

Hourly Weather History & Observations

Time (CDT) Temp. Heat Index Dew Point Humidity Pressure Visibility Wind Dir Wind Speed Gust Speed Precip Events Conditions
12:15 AM 64.8 °F - 56.5 °F 74% 29.87 in 10.0 mi ESE 10.4 mph - N/A   Clear
12:35 AM 64.8 °F - 57.2 °F 76% 29.87 in 10.0 mi ESE 9.2 mph - N/A   Clear
12:55 AM 64.9 °F - 58.1 °F 78% 29.86 in 10.0 mi ESE 9.2 mph - N/A   Clear
1:15 AM 64.6 °F - 58.1 °F 79% 29.86 in 10.0 mi ESE 10.4 mph - N/A   Clear
1:35 AM 64.8 °F - 58.3 °F 79% 29.85 in 10.0 mi ESE 10.4 mph - N/A   Clear
1:55 AM 65.1 °F - 58.1 °F 78% 29.84 in 10.0 mi ESE 9.2 mph - N/A   Clear
2:15 AM 64.6 °F - 58.1 °F 79% 29.83 in 10.0 mi ESE 10.4 mph - N/A   Clear
2:35 AM 64.8 °F - 58.3 °F 79% 29.83 in 10.0 mi ESE 10.4 mph - N/A   Clear
2:46 AM 64.4 °F - 57.2 °F 77% 29.82 in 10.0 mi ESE 10.4 mph - N/A   Clear
2:55 AM 64.4 °F - 58.1 °F 80% 29.82 in 10.0 mi ESE 9.2 mph - N/A   Clear
3:15 AM 64.6 °F - 58.3 °F 80% 29.82 in 10.0 mi SE 9.2 mph - N/A   Clear
3:27 AM 64.4 °F - 57.2 °F 77% 29.81 in 10.0 mi ESE 10.4 mph - N/A   Clear
3:35 AM 64.4 °F - 58.1 °F 80% 29.81 in 10.0 mi ESE 10.4 mph - N/A   Clear
3:46 AM 64.4 °F - 57.2 °F 77% 29.80 in 10.0 mi ESE 11.5 mph - N/A   Clear
3:55 AM 64.2 °F - 58.1 °F 80% 29.80 in 10.0 mi ESE 11.5 mph - N/A   Clear
4:15 AM 64.4 °F - 58.1 °F 80% 29.80 in 10.0 mi ESE 10.4 mph - N/A   Clear
4:27 AM 64.4 °F - 57.2 °F 77% 29.80 in 10.0 mi ESE 10.4 mph - N/A   Clear
4:35 AM 64.2 °F - 58.1 °F 80% 29.81 in 10.0 mi SE 10.4 mph - N/A   Clear
4:55 AM 63.5 °F - 57.7 °F 81% 29.79 in 10.0 mi ESE 11.5 mph - N/A   Clear
5:06 AM 62.6 °F - 57.2 °F 82% 29.79 in 10.0 mi SE 11.5 mph - N/A   Clear
5:15 AM 63.0 °F - 57.6 °F 82% 29.79 in 10.0 mi SE 11.5 mph - N/A   Clear
5:35 AM 62.8 °F - 57.2 °F 82% 29.79 in 10.0 mi SE 10.4 mph - N/A   Clear
5:55 AM 61.3 °F - 56.3 °F 83% 29.79 in 10.0 mi SE 11.5 mph - N/A   Clear
6:15 AM 61.2 °F - 55.8 °F 82% 29.80 in 10.0 mi SSE 11.5 mph - N/A   Clear
6:27 AM 62.6 °F - 55.4 °F 77% 29.80 in 10.0 mi SSE 9.2 mph - N/A   Clear
6:35 AM 61.7 °F - 55.4 °F 80% 29.80 in 10.0 mi SE 10.4 mph - N/A   Clear
6:55 AM 60.3 °F - 55.4 °F 84% 29.80 in 10.0 mi SE 13.8 mph - N/A   Clear
7:15 AM 59.9 °F - 55.0 °F 84% 29.80 in 10.0 mi SE 10.4 mph - N/A   Clear
7:35 AM 59.7 °F - 54.7 °F 83% 29.80 in 10.0 mi SE 8.1 mph - N/A   Clear
7:55 AM 59.0 °F - 54.5 °F 85% 29.81 in 10.0 mi SE 9.2 mph - N/A   Clear
8:15 AM 61.7 °F - 55.4 °F 80% 29.82 in 10.0 mi SE 13.8 mph - N/A   Clear
8:26 AM 62.6 °F - 55.4 °F 77% 29.82 in 10.0 mi SE 12.7 mph - N/A   Clear
8:55 AM 65.7 °F - 55.6 °F 70% 29.82 in 10.0 mi SSE 15.0 mph - N/A   Clear
9:15 AM 68.2 °F - 55.4 °F 64% 29.82 in 10.0 mi SSE 15.0 mph - N/A   Clear
9:35 AM 70.9 °F - 54.5 °F 56% 29.82 in 10.0 mi SSE 15.0 mph - N/A   Clear
9:46 AM 71.6 °F - 53.6 °F 53% 29.81 in 10.0 mi SSE 13.8 mph - N/A   Clear
10:00 AM 72.7 °F - 54.3 °F 52% 29.81 in 10.0 mi South 11.5 mph - N/A   Clear
10:15 AM 74.3 °F - 53.1 °F 47% 29.81 in 10.0 mi SSE 13.8 mph 17.3 mph N/A   Clear
10:35 AM 75.4 °F - 52.5 °F 45% 29.81 in 10.0 mi South 11.5 mph - N/A   Clear
10:46 AM 77.0 °F - 51.8 °F 41% 29.81 in 10.0 mi South 11.5 mph - N/A   Clear
10:55 AM 78.4 °F - 50.5 °F 38% 29.80 in 10.0 mi SSW 18.4 mph 23.0 mph N/A   Clear
11:06 AM 78.8 °F - 51.8 °F 39% 29.80 in 10.0 mi SSW 16.1 mph - N/A   Clear
11:15 AM 79.9 °F - 50.4 °F 36% 29.80 in 10.0 mi South 15.0 mph 20.7 mph N/A   Clear
11:35 AM 79.9 °F - 48.9 °F 34% 29.80 in 10.0 mi South 16.1 mph - N/A   Clear
11:55 AM 78.8 °F - 48.7 °F 35% 29.79 in 10.0 mi South 16.1 mph - N/A   Clear
12:15 PM 80.4 °F - 48.4 °F 32% 29.79 in 10.0 mi SSW 15.0 mph 24.2 mph N/A   Clear
12:35 PM 81.7 °F - 48.4 °F 31% 29.77 in 10.0 mi SSW 17.3 mph 23.0 mph N/A   Clear
12:55 PM 84.2 °F - 48.2 °F 29% 29.76 in 10.0 mi South 18.4 mph 24.2 mph N/A   Clear
1:15 PM 85.6 °F - 48.6 °F 28% 29.75 in 10.0 mi South 19.6 mph 25.3 mph N/A   Clear
1:55 PM 87.3 °F - 49.3 °F 27% 29.72 in 10.0 mi South 18.4 mph 28.8 mph N/A   Clear
2:15 PM 88.0 °F - 48.9 °F 26% 29.71 in 10.0 mi South 19.6 mph 25.3 mph N/A   Clear
2:35 PM 89.1 °F - 48.9 °F 25% 29.70 in 10.0 mi South 18.4 mph 26.5 mph N/A   Clear
2:55 PM 90.5 °F - 50.2 °F 25% 29.69 in 10.0 mi South 18.4 mph 26.5 mph N/A   Clear
3:15 PM 91.0 °F - 47.1 °F 22% 29.68 in 10.0 mi South 19.6 mph 29.9 mph N/A   Clear
3:35 PM 91.6 °F - 47.3 °F 22% 29.66 in 10.0 mi South 24.2 mph 29.9 mph N/A   Clear
3:55 PM 92.7 °F - 45.9 °F 20% 29.65 in 10.0 mi South 25.3 mph 28.8 mph N/A   Clear
4:15 PM 91.8 °F - 44.8 °F 20% 29.63 in 10.0 mi South 23.0 mph 28.8 mph N/A   Clear
4:35 PM 93.6 °F - 41.9 °F 17% 29.62 in 10.0 mi South 26.5 mph 31.1 mph N/A   Clear
4:55 PM 93.9 °F - 44.8 °F 18% 29.61 in 10.0 mi SSE 24.2 mph 29.9 mph N/A   Clear
5:20 PM 92.3 °F - 48.2 °F 22% 29.59 in 10.0 mi SSE 24.2 mph 29.9 mph N/A   Clear
5:35 PM 91.9 °F - 50.0 °F 24% 29.59 in 10.0 mi SSE 23.0 mph 38.0 mph N/A   Clear
5:55 PM 90.9 °F - 48.2 °F 23% 29.59 in 10.0 mi SE 24.2 mph 33.4 mph N/A   Clear
6:15 PM 93.4 °F - 34.2 °F 12% 29.58 in 10.0 mi SW 13.8 mph - N/A   Clear
6:35 PM 95.9 °F - 23.4 °F 7% 29.57 in 10.0 mi SW 17.3 mph - N/A   Clear
6:55 PM 94.6 °F - 24.6 °F 8% 29.58 in 10.0 mi SSW 13.8 mph 20.7 mph N/A   Clear
7:15 PM 89.2 °F - 49.8 °F 26% 29.58 in 10.0 mi SSE 27.6 mph 34.5 mph N/A   Clear
7:35 PM 88.0 °F - 51.1 °F 28% 29.58 in 10.0 mi SSE 23.0 mph 33.4 mph N/A   Clear
7:55 PM 86.9 °F - 51.3 °F 29% 29.58 in 10.0 mi SSE 23.0 mph 28.8 mph N/A   Clear
8:15 PM 86.0 °F - 51.8 °F 31% 29.58 in 10.0 mi SSE 21.9 mph 29.9 mph N/A   Clear
8:35 PM 84.4 °F - 52.9 °F 34% 29.58 in 10.0 mi SSE 25.3 mph 29.9 mph N/A   Clear
8:55 PM 82.9 °F 81.9 °F 54.5 °F 37% 29.59 in 10.0 mi SSE 25.3 mph 33.4 mph N/A   Clear
9:15 PM 82.4 °F 81.7 °F 55.4 °F 39% 29.60 in 10.0 mi South 25.3 mph 32.2 mph N/A   Clear
9:27 PM 82.4 °F 81.7 °F 55.4 °F 39% 29.60 in 10.0 mi SSE 24.2 mph 32.2 mph N/A   Clear
9:35 PM 81.5 °F 81.1 °F 55.6 °F 41% 29.60 in 10.0 mi SSE 23.0 mph 29.9 mph N/A   Clear
9:55 PM 81.0 °F 80.8 °F 55.6 °F 42% 29.62 in 10.0 mi South 23.0 mph 32.2 mph N/A   Clear
10:15 PM 79.7 °F - 55.8 °F 44% 29.62 in 10.0 mi SSE 16.1 mph 24.2 mph N/A   Clear
10:35 PM 79.3 °F - 56.3 °F 45% 29.62 in 10.0 mi SSE 15.0 mph - N/A   Clear
10:55 PM 78.8 °F - 56.8 °F 47% 29.62 in 10.0 mi SSE 17.3 mph 23.0 mph N/A   Clear
11:15 PM 79.2 °F - 56.7 °F 46% 29.61 in 10.0 mi SSE 18.4 mph 27.6 mph N/A   Clear
11:35 PM 79.2 °F - 56.7 °F 46% 29.60 in 10.0 mi South 20.7 mph 25.3 mph N/A   Clear
11:55 PM 79.7 °F - 56.3 °F 44% 29.60 in 10.0 mi South 21.9 mph 29.9 mph N/A   Clear